Regional Weather Roundup
Issued by NWS

Home | Current Version | Previous Version | Graphics & Text | Print | Product List | Glossary On
Versions: 1 2 3 4 5 6 7 8 9 10 11 12 13 14 15 16 17 18 19 20 21 22 23 24 25 26 27 28 29 30 31 32 33 34 35 36 37 38 39 40 41 42 43 44 45 46 47 48 49 50
000
ASUS44 KMEG 290100
RWRTN
TENNESSEE HOURLY STATE WEATHER ROUNDUP
NATIONAL WEATHER SERVICE MEMPHIS TN
800 PM CDT THU JUL 28 2016

TNZ002-004-019-021-049-052-054-088>092-290200-
WEST TENNESSEE

CITY           SKY/WX    TMP DP  RH WIND       PRES   REMARKS
MEMPHIS INTL   MOCLDY    83  75  77 S9        29.94R HX  90
NWS MEMPHIS      N/A     83 N/A N/A MISG        N/A
JACKSON        PTCLDY    81  77  88 SW5       29.94R
DYERSBURG      CLOUDY   N/A N/A N/A MISG        N/A
UNION CITY     CLEAR     82  77  83 CALM      29.90S HX  91
PARIS          CLEAR     79  73  83 CALM      29.93R
LEXINGTON      MOCLDY    81  75  83 SW5       29.93R
$$

TNZ008-025-027-028-033-062-065-066-290200-
NORTH MIDDLE TENNESSEE

CITY           SKY/WX    TMP DP  RH WIND       PRES   REMARKS
NASHVILLE      MOCLDY    81  71  71 SW5       29.93R
CLARKSVILLE    CLEAR     81  75  82 S3        29.92R
COOKEVILLE     MOCLDY    75  73  94 CALM      29.96R
CROSSVILLE     CLOUDY    72  70  93 NW5       30.00F
$$

TNZ061-075-076-078-094-096-097-290200-
SOUTH MIDDLE TENNESSEE

CITY           SKY/WX    TMP DP  RH WIND       PRES   REMARKS
TULLAHOMA      PTCLDY    72  72 100 SW8       30.00R
WINCHESTER     CLOUDY    72  72 100 SW5       30.00R
MCMINNVILLE    MOCLDY    75  75 100 CALM      29.98R
COLUMBIA       CLEAR    N/A N/A N/A SW7       29.95R
SHELBYVILLE    CLEAR     79  75  89 SW7       29.98R
$$

TNZ017-018-042-046-047-290200-
NORTHEAST TENNESSEE

CITY           SKY/WX    TMP DP  RH WIND       PRES   REMARKS
TRI CITIES     LGT RAIN  74  72  93 W10       29.97R FOG
$$

TNZ012-013-036-069-073-074-290200-
CENTRAL EAST TENNESSEE

CITY           SKY/WX    TMP DP  RH WIND       PRES   REMARKS
KNOXVILLE      CLOUDY    77  69  76 W9        29.95R
OAK RIDGE      LGT RAIN  74  71  91 CALM      29.97R
GATLINBURG     CLOUDY    75  70  83 SW8       29.95R
$$

TNZ083-085-099-290200-
SOUTHEAST TENNESSEE

CITY           SKY/WX    TMP DP  RH WIND       PRES   REMARKS
CHATTANOOGA    CLOUDY    77  72  84 SW6       29.98R
$$

SKY/WX REPORTED AS FAIR MEANS FEW OR NO CLOUDS BELOW
12 THOUSAND FEET.




USA.gov is the U.S. government's official web portal to all federal, state and local government web resources and services.